Regional Weather Roundup
Issued by NWS Newport/Morehead, NC

Current Version | Previous Version | Text Only | Print | Product List | Glossary On
Versions: 1 2 3 4 5 6 7 8 9 10 11 12 13 14 15 16 17 18 19 20 21 22 23 24 25 26 27 28 29 30 31 32 33 34 35 36 37 38 39 40 41 42 43 44 45 46 47 48 49 50
000 ASUS42 KMHX 301313 RWRMHX WEATHER ROUNDUP FOR EASTERN NORTH CAROLINA NATIONAL WEATHER SERVICE NEWPORT/MOREHEAD CITY NC 900 AM EDT SUN AUG 30 2015 NOTE: "FAIR" INDICATES FEW OR NO CLOUDS BELOW 12,000 FEET WITH NO SIGNIFICANT WEATHER AND/OR OBSTRUCTIONS TO VISIBILITY NCZ015>017-031-032-045>047-102-103-301400- NORTH COAST CITY SKY/WX TMP DP RH WIND PRES REMARKS EDENTON MOSUNNY 71 67 87 N5 30.15F ELIZABETH CITY MOSUNNY 74 66 76 NW5 30.15S KITTY HAWK SUNNY 80 71 74 N3 30.13S MANTEO SUNNY 77 72 84 N6 30.14S $$ NCZ045>047-081-094-103-104-301400- CENTRAL COAST CITY SKY/WX TMP DP RH WIND PRES REMARKS FRISCO MOSUNNY 79 73 82 VRB7 30.13S SWANQUARTER NOT AVBL $$ NCZ095-097-098-100-101-301400- SOUTHERN COAST CITY SKY/WX TMP DP RH WIND PRES REMARKS BEAUFORT MOSUNNY 77 72 84 N7 30.14S CEDAR ISLAND NOT AVBL JACKSONVILLE PTSUNNY 74 66 76 CALM 30.15R PINEY ISLAND MOSUNNY N/A N/A N/A N8 30.14R WILMINGTON LGT RAIN 72 68 87 N5 30.14F $$ NCZ011>013-027>030-043-044-078>080-089-090>093-098-301400- COASTAL PLAIN CITY SKY/WX TMP DP RH WIND PRES REMARKS AHOSKIE MOSUNNY 69 65 86 CALM 30.16F CLINTON PTSUNNY 72 67 86 CALM 30.16S ELIZABETHTOWN CLOUDY 69 66 89 CALM 30.16S GOLDSBORO MOSUNNY 74 65 74 CALM 30.15S GREENVILLE SUNNY 72 68 88 CALM 30.16F HAVELOCK MOSUNNY 75 68 78 N8 30.16S KENANSVILLE N/A 70 66 88 CALM 30.17S KINSTON MOSUNNY 75 66 73 CALM 30.17S NEW BERN MOSUNNY 73 67 81 N5 30.17S RICHLANDS PTSUNNY 70 63 78 CALM 30.16R ROCKY MOUNT SUNNY 74 65 73 CALM 30.17R WASHINGTON MOSUNNY 71 66 85 CALM 30.16S WHITEVILLE CLOUDY 73 67 83 NE3 30.13F $$ AMZ130-135-150-152-154-156-158-170-250-252-270-ANZ085-086-088-633-658-670-301400- MARINE OBSERVATIONS STATION/POSITION TIME TEMP WIND PRES WAVE SWELL AIR SEA DIR/SP/G HT/PER HT/PER (UTC) (F) (DEG/KT/KT) (MB) (FT/S) (FT/S) CHESAPEAKE LIGHT 1300 76 20/ 4/ 4 1021.6 64 E VA BEACH 1250 78 76 10/ 8/ 10 1019.9 4/11 3/11 DUCK NOT AVBL 2 E DUCK 1211 78 N/A 4/11 2/11 OREGON INLET NOT AVBL 13E OREGON INLT 1300 78 N/A 4/11 2/11 HATTERAS CG NOT AVBL DIAMOND BUOY 1250 78 83 350/ 12/ 12 1020.0 4/10 3/10 CAPE LOOKOUT 1300 76 360/ 8/ 10 1020.3 BEAUFORT LAB NOT AVBL 30 SE NEW RVR IN 1208 79 81 10/ 6/ 10 1020.6 30 SE NEW RVR IN 1225 81 N/A 3/11 2/11 27 SE WRIGHTSVLE 1200 76 81 30/ 6/ 8 N/A 5 SE WRIGHTSVLE 1208 78 82 360/ 6/ 10 1020.5 225 S CAPE HAT 1250 84 83 220/ 4/ 6 1020.8 4/10 5/10 41 SE CHARLESTON 1250 79 85 60/ 2/ 4 1019.5 4/11 3/11 $$

USA.gov is the U.S. government's official web portal to all federal, state and local government web resources and services.